Location: Unspecified
(0.0000°N, 0.0000°E)
Time: 04:32:31
(UTC+00:00)

OBJECT AA - Pass Details

Date: 24 May 2026
Orbit: 535 x 552 km, 97.4° (Epoch: 11 June)

Event Time Altitude Azimuth Distance (km) Brightness Sun altitude
Rises 03:38:20 0° 136° (SE) 2,723 ? -32.1°
Reaches altitude 10° 03:41:25 10° 109° (ESE) 1,827 ? -31.4°
Maximum altitude 03:43:24 14° 79° (ENE) 1,610 ? -30.9°
Drops below altitude 10° 03:45:22 10° 48° (NE) 1,822 ? -30.5°
Sets 03:48:26 0° 22° (NNE) 2,710 ? -29.8°
